TimeGMT,TemperatureF,Dew PointF,Humidity,Sea Level PressureIn,VisibilityMPH,Wind Direction,Wind SpeedMPH,Gust SpeedMPH,PrecipitationIn,Events,Conditions,WindDirDegrees,DateUTC
12:20 AM,33.8,26.6,75,29.53,6.2,East,8.1,-,N/A,Snow,Light Snow,80,2013-01-21 00:20:00
12:50 AM,33.8,26.6,75,29.53,6.2,ENE,10.4,-,N/A,Snow,Light Snow,70,2013-01-21 00:50:00
1:20 AM,33.8,26.6,75,29.53,6.2,East,11.5,-,N/A,Snow,Light Snow,90,2013-01-21 01:20:00
1:50 AM,33.8,28.4,81,29.50,6.2,East,10.4,-,N/A,Snow,Light Snow,80,2013-01-21 01:50:00
2:20 AM,33.8,28.4,81,29.50,6.2,East,8.1,-,N/A,,Overcast,90,2013-01-21 02:20:00
2:50 AM,33.8,28.4,81,29.50,6.2,ENE,12.7,-,N/A,,Overcast,60,2013-01-21 02:50:00
3:20 AM,33.8,28.4,81,29.50,6.2,ENE,10.4,-,N/A,Snow,Snow Grains,70,2013-01-21 03:20:00
3:50 AM,33.8,30.2,87,29.50,-9999.0,East,13.8,-,N/A,Rain,Rain,80,2013-01-21 03:50:00
4:20 AM,33.8,30.2,87,29.50,6.2,ENE,11.5,-,N/A,Snow,Light Snow Showers,60,2013-01-21 04:20:00
4:50 AM,33.8,28.4,81,29.50,6.2,ENE,10.4,-,N/A,Rain,Light Rain,70,2013-01-21 04:50:00
5:20 AM,33.8,28.4,81,29.50,6.2,ENE,11.5,-,N/A,,Overcast,70,2013-01-21 05:20:00
5:50 AM,35.6,28.4,75,29.50,6.2,ENE,12.7,-,N/A,,Overcast,70,2013-01-21 05:50:00
6:20 AM,35.6,28.4,75,29.50,6.2,East,15.0,-,N/A,Snow,Light Snow,80,2013-01-21 06:20:00
6:50 AM,33.8,30.2,87,29.50,4.3,ENE,12.7,-,N/A,Snow,Light Snow,60,2013-01-21 06:50:00
7:20 AM,33.8,32.0,93,29.50,2.8,ENE,9.2,-,N/A,Snow,Light Snow,60,2013-01-21 07:20:00
7:50 AM,33.8,32.0,93,29.50,3.7,ENE,12.7,-,N/A,Snow,Light Snow,60,2013-01-21 07:50:00
8:20 AM,35.6,32.0,87,29.50,6.2,ENE,13.8,-,N/A,,Scattered Clouds,70,2013-01-21 08:20:00
8:50 AM,35.6,32.0,87,29.50,6.2,ENE,13.8,-,N/A,,Scattered Clouds,70,2013-01-21 08:50:00
9:20 AM,35.6,32.0,87,29.50,5.6,ENE,15.0,-,N/A,,Mostly Cloudy,70,2013-01-21 09:20:00
9:50 AM,35.6,32.0,87,29.50,5.6,ENE,17.3,-,N/A,Rain,Light Rain,70,2013-01-21 09:50:00
10:20 AM,35.6,32.0,87,29.50,6.2,ENE,16.1,-,N/A,,Mostly Cloudy,70,2013-01-21 10:20:00
10:50 AM,35.6,32.0,87,29.50,6.2,ENE,19.6,-,N/A,Rain,Light Rain,70,2013-01-21 10:50:00
11:20 AM,35.6,30.2,81,29.50,6.2,East,16.1,-,N/A,Rain,Light Rain,80,2013-01-21 11:20:00
11:50 AM,35.6,30.2,81,29.50,6.2,ENE,17.3,-,N/A,,Mostly Cloudy,70,2013-01-21 11:50:00
12:20 PM,35.6,30.2,81,29.47,6.2,ENE,19.6,-,N/A,Rain,Light Rain,70,2013-01-21 12:20:00
12:50 PM,35.6,32.0,87,29.47,6.2,ENE,20.7,-,N/A,,Mostly Cloudy,70,2013-01-21 12:50:00
1:20 PM,35.6,32.0,87,29.47,6.2,East,19.6,-,N/A,,Mostly Cloudy,80,2013-01-21 13:20:00
1:50 PM,35.6,32.0,87,29.47,6.2,East,21.9,34.5,N/A,,Mostly Cloudy,80,2013-01-21 13:50:00
2:20 PM,35.6,32.0,87,29.47,6.2,East,21.9,-,N/A,Rain,Light Rain,80,2013-01-21 14:20:00
2:50 PM,35.6,32.0,87,29.47,5.0,ENE,20.7,-,N/A,Rain,Light Rain,70,2013-01-21 14:50:00
3:20 PM,35.6,32.0,87,29.44,5.6,ENE,19.6,-,N/A,Rain,Light Rain,70,2013-01-21 15:20:00
3:50 PM,35.6,32.0,87,29.44,6.2,ENE,17.3,29.9,N/A,Rain,Light Rain,70,2013-01-21 15:50:00
4:20 PM,35.6,32.0,87,29.47,5.0,ENE,15.0,-,N/A,,Mostly Cloudy,70,2013-01-21 16:20:00
4:50 PM,35.6,32.0,87,29.47,6.2,ENE,15.0,-,N/A,,Mostly Cloudy,70,2013-01-21 16:50:00
5:20 PM,35.6,30.2,81,29.44,6.2,ENE,15.0,-,N/A,,Mostly Cloudy,70,2013-01-21 17:20:00
5:50 PM,35.6,30.2,81,29.44,6.2,ENE,16.1,-,N/A,,Mostly Cloudy,70,2013-01-21 17:50:00
6:20 PM,35.6,30.2,81,29.44,6.2,ENE,17.3,-,N/A,,Mostly Cloudy,70,2013-01-21 18:20:00
6:50 PM,35.6,30.2,81,29.47,6.2,ENE,17.3,-,N/A,,Mostly Cloudy,70,2013-01-21 18:50:00
7:20 PM,35.6,30.2,81,29.47,6.2,ENE,15.0,-,N/A,,Mostly Cloudy,70,2013-01-21 19:20:00
7:50 PM,35.6,30.2,81,29.47,6.2,ENE,18.4,-,N/A,Rain,Light Rain,70,2013-01-21 19:50:00
8:20 PM,35.6,30.2,81,29.47,6.2,ENE,18.4,-,N/A,Rain,Light Rain,70,2013-01-21 20:20:00
8:50 PM,35.6,30.2,81,29.47,6.2,ENE,19.6,-,N/A,,Mostly Cloudy,70,2013-01-21 20:50:00
9:20 PM,35.6,30.2,81,29.47,6.2,ENE,19.6,-,N/A,,Mostly Cloudy,70,2013-01-21 21:20:00
9:50 PM,35.6,30.2,81,29.47,6.2,East,19.6,31.1,N/A,,Mostly Cloudy,80,2013-01-21 21:50:00
10:20 PM,35.6,30.2,81,29.47,6.2,ENE,23.0,-,N/A,Rain-Snow,Light Rain,70,2013-01-21 22:20:00
10:50 PM,35.6,30.2,81,29.47,6.2,ENE,20.7,-,N/A,Snow,Light Snow,70,2013-01-21 22:50:00
11:20 PM,35.6,30.2,81,29.47,6.2,ENE,20.7,-,N/A,Snow,Light Snow,70,2013-01-21 23:20:00
11:50 PM,35.6,30.2,81,29.47,6.2,ENE,18.4,-,N/A,Snow,Light Snow,70,2013-01-21 23:50:00